This is the latest recevied weather packets stored in our database for station/object IW4ENL-7. If no packets are shown the sender has not sent any weather packets the latest 1 day(s).
| Time | Temp. | Humidity | Pressure | Rain* | Wind** | Luminosity | Snow |
|---|---|---|---|---|---|---|---|
| 1777986615 | 14.44° C | 62% | 961 hPa | - | 2.68 m/s, 29° | - | - |
| 1777986432 | 15° C | 61% | 961 hPa | - | 3.13 m/s, 49° | - | - |
| 1777986249 | 15° C | 61% | 961 hPa | - | 1.34 m/s, 13° | - | - |
| 1777985883 | 14.44° C | 62% | 961 hPa | - | 0.45 m/s, 14° | - | - |
| 1777985701 | 13.89° C | 62% | 961 hPa | - | 2.24 m/s, 49° | - | - |
| 1777985335 | 13.89° C | 63% | 961 hPa | - | 1.34 m/s, 58° | - | - |
| 1777985152 | 13.89° C | 63% | 961 hPa | - | 0.89 m/s, 31° | - | - |
| 1777984969 | 13.89° C | 63% | 961 hPa | - | 1.34 m/s, 49° | - | - |
| 1777984786 | 13.89° C | 63% | 961 hPa | - | 0.45 m/s, 333° | - | - |
| 1777984603 | 13.89° C | 63% | 961 hPa | - | 2.24 m/s, 36° | - | - |
| 1777984420 | 14.44° C | 63% | 961 hPa | - | 2.24 m/s, 40° | - | - |
| 1777984237 | 15° C | 62% | 961 hPa | - | 2.24 m/s, 60° | - | - |
| 1777984054 | 15.56° C | 62% | 961 hPa | - | 2.24 m/s, 22° | - | - |
| 1777983872 | 16.11° C | 61% | 961 hPa | - | 1.79 m/s, 112° | - | - |
| 1777983689 | 15.56° C | 62% | 961 hPa | - | 0.45 m/s, 80° | - | - |
| 1777983323 | 14.44° C | 63% | 961 hPa | - | 1.34 m/s, 54° | - | - |
| 1777983140 | 14.44° C | 63% | 961 hPa | - | 1.79 m/s, 85° | - | - |
| 1777982957 | 13.89° C | 63% | 961 hPa | - | 1.79 m/s, 84° | - | - |
| 1777982591 | 13.33° C | 63% | 961 hPa | - | 1.34 m/s, 61° | - | - |
| 1777982042 | 12.78° C | 63% | 961 hPa | - | 2.68 m/s, 90° | - | - |
| 1777981859 | 12.78° C | 63% | 961 hPa | - | 2.68 m/s, 71° | - | - |
| 1777981676 | 13.33° C | 63% | 961 hPa | - | 2.68 m/s, 92° | - | - |
| 1777981310 | 12.78° C | 63% | 961 hPa | - | 1.79 m/s, 99° | - | - |
| 1777981127 | 12.78° C | 63% | 961 hPa | - | 1.79 m/s, 63° | - | - |
| 1777980944 | 12.78° C | 63% | 961 hPa | - | 2.24 m/s, 80° | - | - |
* Rain since midnight (hover to see other rain measurements)
** Current wind speed in m/s (hover to see current wind gust speed)